DLH6AL EDDM-EGLL

Flight info

Callsign DLH6AL
Flight time 1h 33m
Altitude 34000
Route GIVMI Y101 INBED DCT REKDI DCT LOHRE DCT ADKUV DCT DENUT L608 LOGAN
Aircraft A320/M-SDE2E3FGIJ1LORWXYZ/HB1

Departure

Time 2026-05-08 06:16
Airport Munich Airport (EDDM)

Arrival

Time 2026-05-08 07:50
Airport London Heathrow Airport (EGLL)
Time Latitude Longitude Altitude Speed Heading
2026-05-08 05:57 48.35658 11.79713 1473 ft 0 kts 83°
2026-05-08 06:06 48.35656 11.79693 1471 ft 4 kts 83°
2026-05-08 06:06 48.35653 11.79653 1475 ft 4 kts 83°
2026-05-08 06:07 48.35650 11.79620 1474 ft 3 kts 83°
2026-05-08 06:07 48.35645 11.79582 1471 ft 4 kts 60°
2026-05-08 06:07 48.35628 11.79560 1472 ft 4 kts 358°
2026-05-08 06:07 48.35606 11.79563 1485 ft 1 kts 353°
2026-05-08 06:08 48.35606 11.79564 1485 ft 0 kts 353°
2026-05-08 06:10 48.35622 11.79561 1477 ft 7 kts 353°
2026-05-08 06:10 48.35701 11.79547 1480 ft 16 kts 353°
2026-05-08 06:10 48.35827 11.79525 1485 ft 19 kts 353°
2026-05-08 06:10 48.35967 11.79502 1477 ft 21 kts 354°
2026-05-08 06:11 48.36094 11.79452 1474 ft 17 kts 299°
2026-05-08 06:11 48.36090 11.79277 1474 ft 17 kts 263°
2026-05-08 06:11 48.36076 11.79104 1480 ft 16 kts 263°
2026-05-08 06:11 48.36064 11.78941 1478 ft 15 kts 263°
2026-05-08 06:12 48.36052 11.78794 1485 ft 13 kts 263°
2026-05-08 06:12 48.36042 11.78664 1485 ft 12 kts 263°
2026-05-08 06:12 48.36034 11.78550 1474 ft 10 kts 263°
2026-05-08 06:12 48.36026 11.78449 1481 ft 9 kts 263°
2026-05-08 06:13 48.36019 11.78361 1475 ft 8 kts 263°
2026-05-08 06:13 48.36012 11.78256 1485 ft 16 kts 263°
2026-05-08 06:13 48.35998 11.78086 1485 ft 16 kts 263°
2026-05-08 06:13 48.35986 11.77922 1477 ft 15 kts 263°
2026-05-08 06:14 48.35974 11.77769 1480 ft 14 kts 263°
2026-05-08 06:14 48.36012 11.77668 1477 ft 13 kts 346°
2026-05-08 06:14 48.36128 11.77681 1485 ft 19 kts 34°
2026-05-08 06:14 48.36216 11.77842 1474 ft 21 kts 52°
2026-05-08 06:15 48.36304 11.78017 1478 ft 22 kts 52°
2026-05-08 06:15 48.36387 11.78215 1476 ft 23 kts 78°
2026-05-08 06:15 48.36423 11.78642 1482 ft 74 kts 83°
2026-05-08 06:15 48.36509 11.79758 1486 ft 137 kts 83°
2026-05-08 06:16 48.36629 11.81339 1897 ft 155 kts 83°
2026-05-08 06:16 48.36750 11.82943 2695 ft 155 kts 83°
2026-05-08 06:16 48.36884 11.84615 3184 ft 171 kts 80°
2026-05-08 06:16 48.37494 11.86240 3522 ft 195 kts 39°
2026-05-08 06:17 48.40478 11.86830 4284 ft 247 kts 352°
2026-05-08 06:17 48.42120 11.85845 4915 ft 264 kts 322°
2026-05-08 06:17 48.43387 11.83828 5864 ft 267 kts 309°
2026-05-08 06:18 48.44582 11.81677 6874 ft 269 kts 309°
2026-05-08 06:18 48.45797 11.79523 7844 ft 271 kts 309°
2026-05-08 06:18 48.47026 11.77358 8820 ft 273 kts 308°
2026-05-08 06:18 48.48270 11.75173 9805 ft 276 kts 308°
2026-05-08 06:19 48.49522 11.72970 10710 ft 278 kts 308°
2026-05-08 06:19 48.50791 11.70736 11521 ft 283 kts 308°
2026-05-08 06:19 48.52079 11.68470 12354 ft 287 kts 308°
2026-05-08 06:19 48.52962 11.66915 12906 ft 290 kts 309°
2026-05-08 06:20 48.54283 11.64583 13721 ft 295 kts 309°
2026-05-08 06:20 48.55627 11.62213 14463 ft 299 kts 309°
2026-05-08 06:20 48.56989 11.59812 15190 ft 303 kts 309°
2026-05-08 06:20 48.58389 11.57332 15553 ft 321 kts 308°
2026-05-08 06:21 48.59884 11.54678 15821 ft 339 kts 309°
2026-05-08 06:21 48.61431 11.51933 16400 ft 346 kts 309°
2026-05-08 06:21 48.63003 11.49150 17086 ft 350 kts 308°
2026-05-08 06:21 48.64592 11.46332 17772 ft 354 kts 308°
2026-05-08 06:22 48.66195 11.43478 18445 ft 358 kts 308°
2026-05-08 06:22 48.67815 11.40584 19029 ft 362 kts 308°
2026-05-08 06:22 48.69467 11.37690 19636 ft 365 kts 311°
2026-05-08 06:22 48.71401 11.35166 20260 ft 370 kts 323°
2026-05-08 06:23 48.73551 11.32994 20873 ft 373 kts 324°
2026-05-08 06:23 48.75719 11.30813 21467 ft 375 kts 324°
2026-05-08 06:23 48.77903 11.28607 22029 ft 379 kts 323°
2026-05-08 06:23 48.80103 11.26378 22583 ft 382 kts 323°
2026-05-08 06:24 48.82289 11.24155 23146 ft 385 kts 323°
2026-05-08 06:24 48.84603 11.22063 23684 ft 390 kts 332°
2026-05-08 06:24 48.87150 11.20567 24139 ft 396 kts 339°
2026-05-08 06:24 48.89773 11.19254 24596 ft 398 kts 339°
2026-05-08 06:25 48.92411 11.17927 25051 ft 400 kts 338°
2026-05-08 06:25 48.95060 11.16588 25496 ft 403 kts 338°
2026-05-08 06:25 48.97727 11.15233 25937 ft 405 kts 338°
2026-05-08 06:25 49.00405 11.13867 26395 ft 407 kts 338°
2026-05-08 06:26 49.03099 11.12490 26811 ft 410 kts 338°
2026-05-08 06:26 49.05810 11.11101 27248 ft 412 kts 338°
2026-05-08 06:26 49.08537 11.09703 27675 ft 414 kts 338°
2026-05-08 06:26 49.11277 11.08301 28092 ft 417 kts 338°
2026-05-08 06:27 49.14034 11.06894 28505 ft 419 kts 338°
2026-05-08 06:27 49.16808 11.05479 28916 ft 421 kts 338°
2026-05-08 06:27 49.19597 11.04054 29337 ft 424 kts 338°
2026-05-08 06:27 49.22400 11.02616 29747 ft 426 kts 338°
2026-05-08 06:28 49.25218 11.01163 30124 ft 429 kts 338°
2026-05-08 06:28 49.28049 10.99699 30456 ft 431 kts 338°
2026-05-08 06:28 49.30895 10.98229 30777 ft 433 kts 338°
2026-05-08 06:28 49.33755 10.96750 31088 ft 434 kts 337°
2026-05-08 06:29 49.36511 10.94888 31382 ft 432 kts 328°
2026-05-08 06:29 49.39023 10.92390 31674 ft 430 kts 319°
2026-05-08 06:29 49.41232 10.89338 32038 ft 426 kts 310°
2026-05-08 06:29 49.43139 10.85882 32476 ft 423 kts 306°
2026-05-08 06:30 49.44987 10.82384 32917 ft 421 kts 306°
2026-05-08 06:30 49.46831 10.78895 33359 ft 419 kts 306°
2026-05-08 06:30 49.48665 10.75418 33797 ft 418 kts 306°
2026-05-08 06:30 49.50493 10.71942 34083 ft 418 kts 306°
2026-05-08 06:31 49.52298 10.68509 34126 ft 407 kts 306°
2026-05-08 06:31 49.54060 10.65160 34125 ft 400 kts 306°
2026-05-08 06:31 49.57539 10.58531 34128 ft 397 kts 306°
2026-05-08 06:32 49.60993 10.51909 34128 ft 396 kts 306°
2026-05-08 06:32 49.64440 10.45278 34127 ft 396 kts 306°
2026-05-08 06:33 49.67752 10.38502 34131 ft 395 kts 302°
2026-05-08 06:33 49.70810 10.31467 34123 ft 394 kts 300°
2026-05-08 06:34 49.73830 10.24392 34125 ft 395 kts 301°
2026-05-08 06:34 49.76903 10.17348 34128 ft 395 kts 302°
2026-05-08 06:35 49.80005 10.10320 34117 ft 396 kts 302°
2026-05-08 06:35 49.83098 10.03268 34120 ft 396 kts 301°
2026-05-08 06:36 49.86184 9.96189 34107 ft 397 kts 301°
2026-05-08 06:36 49.89268 9.89092 34102 ft 397 kts 301°
2026-05-08 06:37 49.92349 9.81985 34099 ft 397 kts 301°
2026-05-08 06:37 49.95426 9.74875 34102 ft 397 kts 301°
2026-05-08 06:38 49.98496 9.67758 34107 ft 397 kts 301°
2026-05-08 06:38 50.01579 9.60595 34206 ft 404 kts 301°
2026-05-08 06:39 50.03149 9.56937 34341 ft 410 kts 301°
2026-05-08 06:39 50.04740 9.53223 34512 ft 414 kts 301°
2026-05-08 06:39 50.06221 9.49387 34758 ft 414 kts 294°
2026-05-08 06:39 50.07296 9.45247 35023 ft 412 kts 285°
2026-05-08 06:40 50.08066 9.40943 35281 ft 413 kts 284°
2026-05-08 06:40 50.08814 9.36686 35546 ft 414 kts 284°
2026-05-08 06:40 50.09575 9.32359 35807 ft 414 kts 284°
2026-05-08 06:40 50.10338 9.28026 36067 ft 415 kts 284°
2026-05-08 06:41 50.11101 9.23691 36322 ft 416 kts 284°
2026-05-08 06:41 50.11866 9.19340 36571 ft 417 kts 283°
2026-05-08 06:41 50.12630 9.14985 36829 ft 417 kts 283°
2026-05-08 06:41 50.13393 9.10616 37065 ft 418 kts 283°
2026-05-08 06:42 50.14151 9.06246 37299 ft 418 kts 283°
2026-05-08 06:42 50.14912 9.01859 37535 ft 419 kts 283°
2026-05-08 06:42 50.15672 8.97473 37762 ft 420 kts 283°
2026-05-08 06:42 50.16433 8.93075 37989 ft 420 kts 283°
2026-05-08 06:43 50.17194 8.88665 38114 ft 421 kts 283°
2026-05-08 06:43 50.17954 8.84251 38135 ft 421 kts 283°
2026-05-08 06:43 50.19464 8.75415 38137 ft 421 kts 283°
2026-05-08 06:44 50.20966 8.66575 38138 ft 422 kts 283°
2026-05-08 06:44 50.22464 8.57726 38138 ft 421 kts 283°
2026-05-08 06:45 50.23962 8.48880 38139 ft 422 kts 283°
2026-05-08 06:45 50.25450 8.40014 38135 ft 422 kts 283°
2026-05-08 06:46 50.26929 8.31144 38139 ft 422 kts 283°
2026-05-08 06:46 50.28398 8.22272 38144 ft 422 kts 283°
2026-05-08 06:47 50.29865 8.13388 38140 ft 422 kts 282°
2026-05-08 06:47 50.31327 8.04504 38136 ft 422 kts 282°
2026-05-08 06:48 50.32778 7.95618 38140 ft 422 kts 282°
2026-05-08 06:48 50.34218 7.86721 38139 ft 422 kts 282°
2026-05-08 06:49 50.35656 7.77822 38146 ft 422 kts 282°
2026-05-08 06:49 50.37086 7.68919 38136 ft 422 kts 282°
2026-05-08 06:50 50.38514 7.60009 38128 ft 422 kts 282°
2026-05-08 06:50 50.39937 7.51094 38126 ft 422 kts 282°
2026-05-08 06:51 50.41346 7.42174 38129 ft 422 kts 282°
2026-05-08 06:51 50.42741 7.33243 38135 ft 422 kts 282°
2026-05-08 06:52 50.44133 7.24367 38119 ft 422 kts 282°
2026-05-08 06:52 50.45527 7.15433 38110 ft 422 kts 282°
2026-05-08 06:53 50.46911 7.06489 38109 ft 422 kts 282°
2026-05-08 06:53 50.48291 6.97542 38107 ft 422 kts 282°
2026-05-08 06:54 50.49655 6.88584 38123 ft 422 kts 282°
2026-05-08 06:54 50.51202 6.79694 38123 ft 423 kts 289°
2026-05-08 06:55 50.53352 6.71079 38129 ft 423 kts 289°
2026-05-08 06:55 50.55476 6.62447 38123 ft 423 kts 289°
2026-05-08 06:56 50.57593 6.53807 38126 ft 423 kts 289°
2026-05-08 06:56 50.59707 6.45158 38124 ft 424 kts 289°
2026-05-08 06:57 50.61808 6.36502 38122 ft 423 kts 289°
2026-05-08 06:57 50.63907 6.27844 38116 ft 423 kts 289°
2026-05-08 06:58 50.66005 6.19184 38117 ft 423 kts 289°
2026-05-08 06:58 50.68094 6.10519 38115 ft 423 kts 288°
2026-05-08 06:59 50.70172 6.01841 38123 ft 423 kts 288°
2026-05-08 06:59 50.72247 5.93155 38120 ft 423 kts 288°
2026-05-08 07:00 50.74310 5.84462 38128 ft 423 kts 288°
2026-05-08 07:00 50.76363 5.75760 38126 ft 423 kts 288°
2026-05-08 07:01 50.78414 5.67066 38126 ft 423 kts 288°
2026-05-08 07:01 50.80464 5.58359 38135 ft 423 kts 288°
2026-05-08 07:02 50.82506 5.49645 38130 ft 422 kts 288°
2026-05-08 07:02 50.84536 5.40930 38130 ft 422 kts 288°
2026-05-08 07:03 50.86556 5.32206 38125 ft 422 kts 288°
2026-05-08 07:03 50.88573 5.23483 38120 ft 422 kts 288°
2026-05-08 07:04 50.90245 5.16232 38128 ft 422 kts 288°
2026-05-08 07:04 50.92249 5.07493 38119 ft 422 kts 288°
2026-05-08 07:05 50.94248 4.98755 38115 ft 422 kts 288°
2026-05-08 07:05 50.96239 4.90006 38107 ft 421 kts 288°
2026-05-08 07:06 50.98215 4.81253 38105 ft 421 kts 288°
2026-05-08 07:06 51.00190 4.72497 38112 ft 422 kts 288°
2026-05-08 07:07 51.02161 4.63733 38129 ft 421 kts 288°
2026-05-08 07:07 51.04129 4.54964 38121 ft 421 kts 288°
2026-05-08 07:08 51.06088 4.46186 38121 ft 421 kts 287°
2026-05-08 07:08 51.08036 4.37396 38120 ft 421 kts 287°
2026-05-08 07:09 51.09975 4.28606 38117 ft 421 kts 287°
2026-05-08 07:09 51.11905 4.19811 38122 ft 421 kts 287°
2026-05-08 07:10 51.13836 4.11010 38120 ft 421 kts 287°
2026-05-08 07:10 51.15758 4.02205 38113 ft 421 kts 287°
2026-05-08 07:11 51.17669 3.93387 38111 ft 421 kts 287°
2026-05-08 07:11 51.19576 3.84571 38110 ft 421 kts 287°
2026-05-08 07:12 51.21478 3.75738 38110 ft 421 kts 287°
2026-05-08 07:12 51.23405 3.66908 38109 ft 422 kts 291°
2026-05-08 07:13 51.26223 3.58734 38109 ft 424 kts 298°
2026-05-08 07:13 51.29241 3.50638 38119 ft 425 kts 298°
2026-05-08 07:14 51.32244 3.42508 38120 ft 425 kts 298°
2026-05-08 07:14 51.35100 3.34256 38131 ft 423 kts 290°
2026-05-08 07:15 51.37195 3.25476 38123 ft 422 kts 289°
2026-05-08 07:15 51.39279 3.16684 38119 ft 423 kts 289°
2026-05-08 07:16 51.41357 3.07877 38117 ft 423 kts 289°
2026-05-08 07:16 51.43429 2.99073 38115 ft 422 kts 289°
2026-05-08 07:17 51.45496 2.90261 38110 ft 422 kts 289°
2026-05-08 07:17 51.47560 2.81390 37894 ft 431 kts 288°
2026-05-08 07:18 51.48608 2.76868 37619 ft 434 kts 288°
2026-05-08 07:18 51.49660 2.72336 37373 ft 433 kts 288°
2026-05-08 07:18 51.50706 2.67820 37100 ft 431 kts 288°
2026-05-08 07:18 51.51747 2.63320 36834 ft 429 kts 288°
2026-05-08 07:19 51.52778 2.58846 36557 ft 425 kts 288°
2026-05-08 07:19 51.53795 2.54424 36084 ft 420 kts 288°
2026-05-08 07:19 51.54805 2.50034 35570 ft 417 kts 288°
2026-05-08 07:19 51.55806 2.45677 35037 ft 415 kts 288°
2026-05-08 07:20 51.56800 2.41336 34510 ft 413 kts 288°
2026-05-08 07:20 51.57785 2.37013 33956 ft 411 kts 288°
2026-05-08 07:20 51.58764 2.32708 33404 ft 408 kts 288°
2026-05-08 07:20 51.59734 2.28445 32886 ft 404 kts 288°
2026-05-08 07:21 51.60695 2.24224 32386 ft 400 kts 288°
2026-05-08 07:21 51.61646 2.20039 31879 ft 397 kts 288°
2026-05-08 07:21 51.62587 2.15890 31388 ft 393 kts 288°
2026-05-08 07:21 51.63517 2.11769 30905 ft 390 kts 288°
2026-05-08 07:22 51.64435 2.07685 30433 ft 386 kts 288°
2026-05-08 07:22 51.65345 2.03630 29934 ft 383 kts 288°
2026-05-08 07:22 51.66241 1.99622 29479 ft 378 kts 287°
2026-05-08 07:22 51.67123 1.95666 29046 ft 373 kts 287°
2026-05-08 07:23 51.67990 1.91764 28641 ft 367 kts 287°
2026-05-08 07:23 51.68846 1.87915 28209 ft 363 kts 287°
2026-05-08 07:23 51.69694 1.84112 27790 ft 358 kts 287°
2026-05-08 07:23 51.70532 1.80354 27361 ft 354 kts 287°
2026-05-08 07:24 51.71362 1.76633 26954 ft 351 kts 287°
2026-05-08 07:24 51.72167 1.72995 26527 ft 348 kts 287°
2026-05-08 07:24 51.72976 1.69335 26100 ft 345 kts 287°
2026-05-08 07:24 51.73779 1.65698 25658 ft 343 kts 287°
2026-05-08 07:25 51.74381 1.62003 25217 ft 339 kts 276°
2026-05-08 07:25 51.74544 1.58223 24734 ft 340 kts 266°
2026-05-08 07:25 51.74084 1.50592 23697 ft 342 kts 262°
2026-05-08 07:26 51.73835 1.46768 23125 ft 342 kts 262°
2026-05-08 07:26 51.73587 1.42960 22616 ft 341 kts 262°
2026-05-08 07:26 51.73343 1.39163 22104 ft 340 kts 262°
2026-05-08 07:26 51.73099 1.35373 21589 ft 339 kts 262°
2026-05-08 07:27 51.72853 1.31598 21079 ft 339 kts 262°
2026-05-08 07:27 51.72607 1.27819 20557 ft 338 kts 262°
2026-05-08 07:27 51.72359 1.24044 20067 ft 338 kts 262°
2026-05-08 07:27 51.72109 1.20274 19556 ft 338 kts 262°
2026-05-08 07:28 51.71855 1.16499 19050 ft 339 kts 262°
2026-05-08 07:28 51.71602 1.12727 18539 ft 339 kts 262°
2026-05-08 07:28 51.71346 1.08937 17987 ft 340 kts 262°
2026-05-08 07:28 51.71089 1.05159 17475 ft 338 kts 262°
2026-05-08 07:29 51.70832 1.01411 17027 ft 335 kts 262°
2026-05-08 07:29 51.70575 0.97686 16602 ft 332 kts 262°
2026-05-08 07:29 51.70319 0.93975 16095 ft 333 kts 262°
2026-05-08 07:29 51.70065 0.90302 15753 ft 328 kts 262°
2026-05-08 07:30 51.69810 0.86654 15309 ft 327 kts 262°
2026-05-08 07:30 51.69553 0.83019 14892 ft 326 kts 262°
2026-05-08 07:30 51.69299 0.79404 14486 ft 324 kts 262°
2026-05-08 07:30 51.69046 0.75803 14084 ft 322 kts 263°
2026-05-08 07:31 51.68792 0.72222 13665 ft 321 kts 263°
2026-05-08 07:31 51.68538 0.68666 13239 ft 318 kts 263°
2026-05-08 07:31 51.68286 0.65146 12760 ft 313 kts 263°
2026-05-08 07:31 51.68036 0.61673 12096 ft 310 kts 263°
2026-05-08 07:32 51.67787 0.58266 11586 ft 302 kts 263°
2026-05-08 07:32 51.67547 0.54973 11191 ft 291 kts 263°
2026-05-08 07:32 51.67318 0.51786 10809 ft 282 kts 263°
2026-05-08 07:32 51.67093 0.48663 10424 ft 280 kts 264°
2026-05-08 07:33 51.66866 0.45553 10052 ft 279 kts 263°
2026-05-08 07:33 51.66638 0.42460 9648 ft 278 kts 263°
2026-05-08 07:33 51.66408 0.39380 9267 ft 276 kts 263°
2026-05-08 07:33 51.66181 0.36324 8892 ft 274 kts 263°
2026-05-08 07:34 51.65958 0.33285 8519 ft 273 kts 263°
2026-05-08 07:34 51.65735 0.30253 8157 ft 272 kts 262°
2026-05-08 07:34 51.65510 0.27230 7777 ft 271 kts 262°
2026-05-08 07:34 51.65281 0.24217 7356 ft 272 kts 262°
2026-05-08 07:35 51.65056 0.21244 7194 ft 261 kts 262°
2026-05-08 07:35 51.64844 0.18407 7089 ft 249 kts 261°
2026-05-08 07:35 51.64642 0.15685 7001 ft 242 kts 262°
2026-05-08 07:35 51.64459 0.12998 7006 ft 242 kts 263°
2026-05-08 07:36 51.64308 0.10303 7007 ft 242 kts 263°
2026-05-08 07:36 51.64166 0.07607 7008 ft 242 kts 264°
2026-05-08 07:36 51.64025 0.04912 7009 ft 242 kts 263°
2026-05-08 07:36 51.63884 0.02254 6973 ft 240 kts 263°
2026-05-08 07:37 51.63738 -0.00467 7001 ft 241 kts 263°
2026-05-08 07:37 51.63591 -0.03159 7006 ft 242 kts 263°
2026-05-08 07:37 51.63442 -0.05852 7007 ft 242 kts 263°
2026-05-08 07:37 51.63289 -0.08549 7007 ft 242 kts 263°
2026-05-08 07:38 51.63135 -0.11243 7007 ft 242 kts 263°
2026-05-08 07:38 51.62983 -0.13940 7009 ft 242 kts 263°
2026-05-08 07:38 51.62831 -0.16599 7009 ft 242 kts 263°
2026-05-08 07:38 51.62676 -0.19296 7010 ft 242 kts 263°
2026-05-08 07:39 51.62520 -0.21996 7010 ft 242 kts 263°
2026-05-08 07:39 51.62361 -0.24730 7010 ft 242 kts 262°
2026-05-08 07:39 51.62203 -0.27437 6849 ft 243 kts 262°
2026-05-08 07:39 51.62045 -0.30129 6602 ft 241 kts 262°
2026-05-08 07:40 51.61887 -0.32817 6320 ft 241 kts 262°
2026-05-08 07:40 51.61730 -0.35496 6058 ft 240 kts 262°
2026-05-08 07:40 51.61574 -0.38169 5793 ft 239 kts 262°
2026-05-08 07:40 51.61417 -0.40830 5524 ft 239 kts 262°
2026-05-08 07:41 51.61265 -0.43435 5287 ft 238 kts 262°
2026-05-08 07:41 51.61096 -0.46113 5037 ft 253 kts 261°
2026-05-08 07:41 51.60889 -0.48960 4776 ft 254 kts 261°
2026-05-08 07:41 51.60681 -0.51780 4509 ft 247 kts 261°
2026-05-08 07:42 51.60485 -0.54465 4255 ft 243 kts 261°
2026-05-08 07:42 51.60292 -0.57149 3996 ft 240 kts 261°
2026-05-08 07:42 51.60100 -0.59797 3740 ft 236 kts 261°
2026-05-08 07:42 51.59913 -0.62405 3483 ft 232 kts 261°
2026-05-08 07:43 51.59732 -0.64996 3221 ft 228 kts 261°
2026-05-08 07:43 51.59558 -0.67508 3030 ft 222 kts 261°
2026-05-08 07:43 51.59398 -0.69881 2982 ft 212 kts 261°
2026-05-08 07:43 51.58978 -0.72129 2982 ft 206 kts 231°
2026-05-08 07:44 51.57906 -0.73495 2929 ft 200 kts 196°
2026-05-08 07:44 51.56530 -0.73882 2801 ft 199 kts 183°
2026-05-08 07:44 51.55165 -0.74017 2694 ft 199 kts 181°
2026-05-08 07:44 51.53786 -0.74115 2589 ft 198 kts 181°
2026-05-08 07:45 51.52407 -0.74205 2500 ft 198 kts 181°
2026-05-08 07:45 51.51032 -0.74298 2501 ft 198 kts 181°
2026-05-08 07:45 51.49655 -0.74364 2500 ft 198 kts 175°
2026-05-08 07:45 51.48395 -0.73607 2500 ft 197 kts 140°
2026-05-08 07:46 51.47681 -0.71766 2501 ft 200 kts 103°
2026-05-08 07:46 51.47625 -0.69526 2514 ft 200 kts 91°
2026-05-08 07:46 51.47651 -0.67328 2391 ft 196 kts 91°
2026-05-08 07:46 51.47668 -0.65135 2168 ft 198 kts 92°
2026-05-08 07:47 51.47681 -0.62935 1921 ft 193 kts 92°
2026-05-08 07:47 51.47694 -0.60877 1667 ft 177 kts 92°
2026-05-08 07:47 51.47703 -0.58975 1426 ft 165 kts 92°
2026-05-08 07:47 51.47711 -0.57212 1203 ft 153 kts 91°
2026-05-08 07:48 51.47719 -0.55555 1006 ft 144 kts 91°
2026-05-08 07:48 51.47725 -0.53985 806 ft 138 kts 90°
2026-05-08 07:48 51.47732 -0.52477 625 ft 134 kts 90°
2026-05-08 07:48 51.47738 -0.50982 429 ft 135 kts 89°
2026-05-08 07:49 51.47745 -0.49462 245 ft 137 kts 89°
2026-05-08 07:49 51.47753 -0.47938 108 ft 136 kts 89°
2026-05-08 07:49 51.47763 -0.46986 90 ft 120 kts 91°
2026-05-08 07:49 51.47761 -0.45829 85 ft 90 kts 90°
2026-05-08 07:50 51.47765 -0.45025 89 ft 45 kts 90°
2026-05-08 07:50 51.47758 -0.44595 90 ft 33 kts 101°
2026-05-08 07:50 51.47670 -0.44273 87 ft 24 kts 125°
2026-05-08 07:50 51.47601 -0.44321 86 ft 14 kts 265°
2026-05-08 07:51 51.47601 -0.44469 86 ft 13 kts 269°
2026-05-08 07:51 51.47598 -0.44606 86 ft 12 kts 258°
2026-05-08 07:51 51.47537 -0.44653 86 ft 10 kts 168°
2026-05-08 07:51 51.47489 -0.44577 90 ft 10 kts 137°
2026-05-08 07:52 51.47418 -0.44559 86 ft 10 kts 179°
2026-05-08 07:52 51.47350 -0.44558 86 ft 9 kts 179°
2026-05-08 07:52 51.47289 -0.44557 86 ft 8 kts 179°
2026-05-08 07:52 51.47233 -0.44557 86 ft 8 kts 179°
2026-05-08 07:53 51.47165 -0.44556 86 ft 10 kts 180°
2026-05-08 07:53 51.47101 -0.44556 86 ft 9 kts 180°
2026-05-08 07:53 51.47046 -0.44569 89 ft 7 kts 222°
2026-05-08 07:53 51.47037 -0.44642 89 ft 7 kts 269°
2026-05-08 07:54 51.47036 -0.44667 86 ft 1 kts 269°
2026-05-08 07:54 51.47036 -0.44669 86 ft 0 kts 269°